loading
DOY 175 | 2024-06-23T11:56:22Z

THOR ABLESTAR DEB, 122

Orbit data source: Space-Track

THOR ABLESTAR DEB, 122 is space debris in LEO originally from a launch on Thu, 29 Jun 1961 UTC launched from the Air Force Eastern Test Range (AFETR). Debris objects in space refer to the collection of defunct objects orbiting the Earth. Examples of debris include non-operational satellites, rocket bodies, and fragments generated from explosions, collisions, or faulty payload assembly.

Loading next visibility...
Loading greatness...
THOR ABLESTAR DEB details
NORAD ID122
COSPAR ID
1961-015G
Orbit
LEO
Last TLE update7 hours ago
Origin
Flag of USUSAF SSD (US)
ManufacturerUnknown
BusUnknown
MotorUnknown
MassWet unknown, Dry mass unknown
Launch date (UTC)
1961-06-29 (63 years ago)
Launch vehicleUnknown
Launch site
Air Force Eastern Test Range (AFETR)
Object type
Payload
Rocket body
Debris
Radar Cross SectionMedium (>0.1 m² and <1 m²)
Predictive object data (real-time)
Latitude-21.99744°
Longitude-41.02759°
Altitude664.445 km
Speed7.509 km/s
Apparent Right ascension16h 42m 31s
Apparent Declination-54° 16' 01"
Sunlit
Object is in full shadow
Predictive observer data (real-time)
Local Sidereal Time23:04:29
Azimuth224.734° SW
Elevation-34.314°
Doppler factor1
Orbital elements
Apogee661.421 km
Perigee591.454 km
Semi-major axis7,004.574 km
Eccentricity0.0049944
Inclination66.7483°
RAAN109.8448°
Arg. of periapsis58.3423°
True anomaly301.7702°
Mean anomaly302.2558°
Mean motion3.70229 °/min
BSTAR0.001034
Period97.24 mins
Definitive object data (Epoch: 2024-06-23T04:32:23.934Z)
Latitude-0.00006°
Longitude129.90333°
Altitude611.714 km
Speed7.564 km/s
True Right ascension07h 19m 22s
True Declination0° 00' 00"
Sunlit
Object was in daylight at TLE epoch
TLE from 7 hours ago
0 THOR ABLESTAR DEB
1   122U 61015G   24175.18916591  .00007972  00000-0  10340-2 0  9992
2   122  66.7483 109.8448 0049944  58.3423 302.2558 14.80385885307083
Epoch: 2024-06-23T04:32Z
No data available

THOR ABLESTAR DEB Visibility forecast

Observer location: 39.9160978°, -105.1181434, 0m alt.

THOR ABLESTAR DEB is not visible in the next 10 days
Span
Click to sort rows by Start time (UTC) header in descending order
Start Az.
Max El. time (UTC)
Max El. Az.
Max El.
End time (UTC)
End Az.